TimeCDT,TemperatureF,Dew PointF,Humidity,Sea Level PressureIn,VisibilityMPH,Wind Direction,Wind SpeedMPH,Gust SpeedMPH,PrecipitationIn,Events,Conditions,WindDirDegrees,DateUTC
12:15 AM,42.8,39.2,87,29.77,6.0,NW,11.5,-,N/A,,Overcast,320,2013-10-31 05:15:00
12:42 AM,42.8,39.2,87,29.76,7.0,NW,8.1,-,N/A,,Overcast,320,2013-10-31 05:42:00
12:52 AM,43.0,39.9,89,29.77,7.0,NW,6.9,-,N/A,,Overcast,320,2013-10-31 05:52:00
1:33 AM,42.8,39.2,87,29.75,7.0,NNW,8.1,-,N/A,,Mostly Cloudy,340,2013-10-31 06:33:00
1:52 AM,41.0,37.9,89,29.72,7.0,North,10.4,-,N/A,,Mostly Cloudy,350,2013-10-31 06:52:00
2:21 AM,39.2,37.4,93,29.71,9.0,North,9.2,-,N/A,,Mostly Cloudy,350,2013-10-31 07:21:00
2:40 AM,39.2,37.4,93,29.71,10.0,NNW,6.9,-,N/A,,Scattered Clouds,340,2013-10-31 07:40:00
2:52 AM,37.9,36.0,93,29.73,10.0,North,3.5,-,N/A,,Partly Cloudy,350,2013-10-31 07:52:00
3:52 AM,39.0,37.0,93,29.71,8.0,Calm,Calm,-,N/A,,Mostly Cloudy,0,2013-10-31 08:52:00
4:12 AM,39.2,37.4,93,29.71,9.0,Calm,Calm,-,N/A,,Mostly Cloudy,0,2013-10-31 09:12:00
4:43 AM,39.2,37.4,93,29.70,10.0,Calm,Calm,-,N/A,,Overcast,0,2013-10-31 09:43:00
4:52 AM,39.9,37.0,89,29.71,10.0,Calm,Calm,-,N/A,,Overcast,0,2013-10-31 09:52:00
5:52 AM,39.0,37.0,93,29.68,7.0,NNW,3.5,-,N/A,,Overcast,340,2013-10-31 10:52:00
6:52 AM,39.0,37.0,93,29.71,10.0,WSW,3.5,-,N/A,,Overcast,240,2013-10-31 11:52:00
7:52 AM,39.9,37.0,89,29.69,10.0,WSW,3.5,-,N/A,,Overcast,250,2013-10-31 12:52:00
8:52 AM,39.9,37.0,89,29.69,10.0,Calm,Calm,-,N/A,,Overcast,0,2013-10-31 13:52:00
9:52 AM,41.0,37.0,86,29.68,10.0,Calm,Calm,-,N/A,,Mostly Cloudy,0,2013-10-31 14:52:00
10:52 AM,44.1,37.9,79,29.64,10.0,WNW,4.6,-,N/A,,Mostly Cloudy,300,2013-10-31 15:52:00
11:52 AM,46.0,39.0,76,29.62,10.0,Calm,Calm,-,N/A,,Mostly Cloudy,0,2013-10-31 16:52:00
12:52 PM,46.9,39.9,77,29.60,10.0,SSW,4.6,-,N/A,,Mostly Cloudy,210,2013-10-31 17:52:00
1:52 PM,48.9,39.9,71,29.56,10.0,Calm,Calm,-,N/A,,Mostly Cloudy,0,2013-10-31 18:52:00
2:52 PM,55.0,43.0,64,29.52,10.0,West,10.4,-,N/A,,Scattered Clouds,260,2013-10-31 19:52:00
3:52 PM,57.0,39.9,53,29.52,10.0,West,13.8,-,N/A,,Scattered Clouds,260,2013-10-31 20:52:00
4:52 PM,55.9,39.0,53,29.51,10.0,WNW,9.2,-,N/A,,Mostly Cloudy,290,2013-10-31 21:52:00
5:52 PM,55.9,36.0,47,29.52,10.0,WNW,12.7,-,N/A,,Mostly Cloudy,290,2013-10-31 22:52:00
6:52 PM,52.0,37.0,57,29.55,10.0,NW,11.5,-,N/A,,Partly Cloudy,310,2013-10-31 23:52:00
7:52 PM,48.9,36.0,61,29.55,10.0,West,4.6,-,N/A,,Clear,280,2013-11-01 00:52:00
8:52 PM,46.0,37.0,71,29.56,10.0,West,4.6,-,N/A,,Clear,270,2013-11-01 01:52:00
9:52 PM,46.9,36.0,66,29.58,10.0,WNW,8.1,-,N/A,,Clear,290,2013-11-01 02:52:00
10:52 PM,46.0,36.0,68,29.59,10.0,West,9.2,-,N/A,,Clear,280,2013-11-01 03:52:00
11:52 PM,46.0,35.1,66,29.60,10.0,WNW,10.4,-,N/A,,Clear,290,2013-11-01 04:52:00